Wind_Speed
25 27 27 26 24 26 26 23 27 21 20 23 20 13 11 14 18 21 18 18 11 13 17 20 22 21 20 21 21 19 17 19 21 22 24 27 30 32 34 36 36 37 37 37
25 23 25 26 28 30 30 26 29 28 28 28 21 13 11 18 21 23 21 17 3 7 14 17 20 13 20 28 25 22 23 24 26 27 29 32 35 36 38 38 39 38 39 39
25 29 31 31 31 32 29 31 31 30 27 27 23 17 16 17 18 23 20 16 4 2 11 17 17 13 22 25 23 24 26 29 30 31 33 35 36 38 38 38 38 39 40 40
28 30 32 35 35 34 34 33 31 31 25 22 22 21 22 22 22 24 20 19 12 4 5 14 21 19 24 28 26 25 28 31 33 33 34 34 35 37 37 38 38 39 40 42
24 24 29 29 29 32 27 33 34 34 31 29 28 28 27 30 27 27 24 23 20 11 6 9 18 22 25 29 27 24 27 32 33 34 33 33 34 35 37 38 39 40 42 43
24 22 23 25 27 31 28 33 38 38 37 37 31 35 31 29 29 33 31 28 25 21 12 12 18 24 29 33 31 30 33 36 34 35 35 36 37 38 39 40 42 43 41 40
24 20 18 21 26 22 21 21 29 36 38 38 39 42 40 29 31 30 29 33 28 26 22 18 21 27 33 34 34 36 38 38 38 37 35 36 38 40 41 43 43 41 38 36
26 23 21 24 25 24 22 19 22 23 26 26 30 45 50 45 38 29 31 32 31 23 21 18 27 32 35 37 33 40 43 43 40 36 36 37 38 38 39 42 42 38 35 40
24 20 25 29 27 28 24 23 22 23 24 26 26 29 33 37 36 31 32 33 31 32 23 25 33 23 33 32 37 42 41 39 33 34 36 36 36 38 39 40 40 41 43 47
23 24 24 30 30 27 27 26 26 25 26 26 26 25 26 26 27 31 31 29 30 32 30 33 37 36 37 37 41 41 39 38 35 35 35 35 35 35 40 40 38 39 43 47
26 28 24 30 33 33 30 29 28 28 29 27 28 27 23 27 31 31 31 31 34 35 37 38 35 37 41 39 40 38 39 43 41 40 40 38 38 38 41 41 40 41 47 50
29 30 26 31 32 36 31 30 32 33 31 29 30 27 22 23 26 28 28 30 32 35 37 40 43 44 42 39 37 35 34 35 40 37 39 40 40 40 42 41 45 46 49 52
30 32 30 25 32 35 37 34 33 35 35 34 34 28 25 25 26 28 30 32 33 35 37 37 35 33 33 34 37 35 33 35 38 39 40 43 38 44 43 40 43 49 53 49
34 34 33 29 26 30 38 37 37 39 40 36 33 30 30 27 25 29 31 30 32 34 35 34 30 34 34 35 37 37 36 34 36 39 40 40 40 40 41 39 42 55 51 53
40 38 37 37 34 32 37 41 44 46 46 44 39 34 33 31 32 33 35 35 36 38 40 38 35 38 39 40 43 42 41 38 38 41 42 45 37 41 48 50 50 51 52 54
48 46 44 43 43 40 37 40 40 40 45 46 43 42 40 43 42 39 38 40 40 42 41 42 43 46 45 49 50 48 46 40 41 43 45 46 44 52 53 50 50 53 54 54
53 52 49 47 49 50 51 44 42 43 43 43 45 44 46 47 46 44 43 43 41 40 43 45 50 48 49 50 51 48 46 43 44 47 47 47 51 51 51 50 51 52 52 52
49 53 55 54 54 56 54 54 52 50 49 49 48 46 47 47 48 48 45 45 47 47 50 51 50 52 51 51 47 44 44 46 47 50 52 51 50 49 49 50 51 51 50 51
47 50 53 56 57 57 57 55 52 52 50 48 46 44 45 47 48 47 44 45 46 48 49 50 53 52 52 49 49 49 47 50 50 49 51 49 48 48 48 49 50 49 49 51
48 49 50 56 58 61 57 53 52 55 58 48 45 45 45 48 50 52 53 50 48 47 46 48 49 50 50 49 49 47 49 48 49 49 48 47 47 47 49 50 48 49 48 47
47 48 50 53 58 63 60 59 57 59 54 53 50 45 46 46 46 46 48 47 48 48 48 49 45 47 46 47 48 47 45 45 44 44 45 46 45 46 47 48 47 47 45 41
51 51 53 54 58 61 57 57 58 57 57 55 52 49 45 43 42 44 43 40 40 42 44 41 39 44 47 43 40 44 41 41 42 42 45 44 44 47 45 45 45 44 39 34
59 56 54 56 56 56 56 54 53 53 54 55 55 53 49 43 37 36 39 41 43 40 34 40 43 40 38 38 41 43 37 39 38 41 42 42 45 45 43 43 42 39 33 32
56 54 55 54 54 55 54 53 53 54 53 52 51 48 45 44 44 43 39 43 48 41 40 45 42 40 42 40 38 36 40 40 38 40 40 43 43 40 41 41 36 33 32 33
56 55 55 56 56 54 53 53 52 52 51 51 50 47 45 44 44 43 45 43 42 40 44 39 33 44 42 40 32 35 39 36 37 38 42 42 39 38 38 35 30 30 32 34
54 54 56 58 58 58 56 54 51 51 48 47 45 45 46 47 42 41 39 31 33 34 32 36 30 33 34 34 30 34 36 36 36 40 42 38 36 34 34 30 28 30 32 33
Wind_Direction
221 222 223 214 221 232 232 230 226 227 218 245 254 252 284 285 300 299 309 324 320 347 357 357 351 349 349 344 334 324 312 304 301 300 299 297 294 296 299 300 303 305 304 302
217 223 228 227 222 226 227 223 225 242 235 243 252 242 267 277 286 292 309 325 292 13 348 337 347 5 355 341 332 321 310 302 299 298 295 293 295 298 299 302 304 304 305 305
213 216 221 223 223 223 223 227 224 238 244 251 257 247 249 268 291 293 305 307 249 24 325 320 322 322 333 334 321 312 303 301 302 302 299 298 299 299 300 301 303 303 301 302
219 218 220 225 228 228 226 231 231 231 235 251 266 264 259 266 283 293 300 304 280 245 289 304 312 307 315 321 316 302 303 304 304 302 299 298 297 298 299 299 300 300 301 299
233 231 230 231 234 237 240 236 237 233 228 231 251 260 268 274 285 288 285 293 293 281 252 270 291 294 302 304 304 311 313 310 304 300 298 297 297 297 297 298 297 296 296 299
233 235 240 239 237 240 230 226 231 239 236 234 239 248 257 267 278 283 277 282 274 264 269 264 265 277 290 293 301 302 310 314 306 299 296 295 295 294 293 292 293 294 299 302
237 237 237 236 244 235 234 236 237 243 246 246 239 248 256 257 264 265 269 275 280 275 265 262 259 275 286 288 303 305 313 314 308 301 297 295 295 295 295 294 294 297 298 305
232 230 235 237 241 234 223 232 239 244 248 249 242 248 253 258 257 255 261 269 274 266 263 278 271 276 282 293 300 311 315 309 302 298 297 296 295 295 295 295 295 295 297 306
235 238 238 243 239 243 253 255 248 255 259 259 254 253 259 260 262 262 259 263 262 264 272 266 275 268 289 293 303 312 308 303 299 297 297 296 298 295 297 298 294 294 300 305
238 235 239 246 251 249 250 257 256 258 265 268 265 264 267 267 268 270 275 276 276 282 279 276 285 283 283 296 307 307 305 305 302 300 297 297 299 300 301 305 298 296 308 313
234 243 223 244 249 252 251 256 259 260 263 270 275 274 270 269 270 274 277 281 285 283 278 278 279 282 290 303 300 305 301 301 299 297 297 299 302 305 305 308 300 296 308 312
247 246 234 234 239 250 255 259 264 268 272 278 278 276 286 280 270 268 268 269 271 272 270 273 280 288 298 301 302 300 303 298 291 293 296 299 300 305 306 304 299 295 303 307
251 250 250 232 235 248 257 260 266 271 276 272 274 285 276 270 270 271 275 277 278 279 280 283 292 305 305 298 305 304 297 301 295 297 298 303 299 304 306 301 294 297 301 304
255 254 255 254 244 245 251 255 263 268 269 273 273 279 284 288 282 274 281 282 284 287 292 297 304 310 314 316 316 312 304 299 295 296 298 301 299 300 303 299 293 301 306 307
254 255 255 255 252 247 249 248 248 251 262 271 277 278 281 285 280 276 279 285 291 292 295 297 301 302 304 308 309 310 301 299 300 302 303 305 298 294 303 299 302 302 303 305
252 253 255 258 261 260 255 262 263 263 265 272 281 285 289 288 280 276 274 276 281 285 290 293 292 298 305 306 304 305 302 300 300 300 300 300 296 299 303 305 303 303 305 307
248 252 256 257 258 261 263 260 266 271 271 271 271 275 269 271 276 277 274 276 276 280 283 285 289 295 299 299 299 298 298 296 295 294 295 295 299 301 302 301 301 302 305 307
248 252 256 260 261 260 265 268 265 266 266 269 272 271 273 276 275 275 274 274 279 281 279 282 287 291 294 293 291 291 292 291 291 290 295 297 301 300 299 299 301 302 305 305
248 249 253 258 260 263 262 265 268 267 265 264 266 270 271 270 272 272 274 277 277 277 280 282 283 285 287 286 287 288 289 292 293 291 297 299 297 296 296 297 298 301 303 303
249 251 252 255 257 260 262 262 267 271 268 274 276 272 268 266 269 270 272 274 276 276 277 281 284 284 282 282 283 286 288 291 292 294 295 294 294 295 295 298 301 300 300 302
249 250 252 254 257 257 260 264 266 266 273 273 272 269 268 268 273 274 273 274 273 278 281 283 280 279 281 280 284 285 287 290 290 289 291 292 292 292 296 299 299 299 301 301
254 254 253 253 257 259 262 266 268 271 275 276 276 275 276 275 272 269 273 278 276 276 276 273 277 281 278 279 279 279 283 287 287 289 290 289 293 295 298 300 300 300 299 300
256 257 258 256 257 257 261 264 265 268 272 276 280 283 285 284 277 268 276 276 270 272 276 275 275 275 268 274 274 280 285 284 284 292 290 292 298 300 300 300 300 297 298 302
259 260 258 258 258 259 260 261 263 267 268 270 273 276 277 277 274 276 271 276 279 280 281 280 266 258 260 265 272 279 281 284 293 290 292 298 298 299 301 301 297 297 301 307
262 262 262 261 261 258 258 259 259 260 261 263 268 270 270 268 268 273 274 276 274 276 279 273 274 277 258 261 269 276 279 288 292 296 299 298 298 300 301 299 296 299 304 308
263 265 264 265 262 259 259 257 258 261 264 267 269 269 267 265 269 270 266 272 275 278 285 285 278 237 256 261 272 278 285 293 294 299 295 294 299 300 299 295 298 301 306 308
Height
5888 5891 5893 5895 5896 5899 5899 5900 5900 5901 5900 5899 5902 5903 5903 5904 5906 5907 5907 5906 5901 5900 5899 5897 5896 5895 5895 5895 5895 5896 5896 5895 5894 5893 5891 5888 5886 5883 5881 5877 5875 5872 5869 5866
5886 5889 5890 5891 5893 5894 5895 5896 5898 5899 5897 5896 5897 5899 5899 5899 5904 5904 5904 5903 5901 5899 5898 5898 5898 5897 5896 5895 5894 5893 5892 5891 5890 5889 5886 5883 5880 5877 5874 5871 5868 5865 5861 5858
5881 5882 5883 5885 5886 5889 5891 5891 5894 5895 5892 5893 5893 5892 5895 5897 5897 5899 5900 5900 5899 5899 5899 5896 5897 5895 5894 5894 5892 5889 5887 5886 5886 5884 5880 5877 5874 5871 5868 5864 5861 5858 5854 5851
5874 5875 5877 5878 5880 5883 5885 5886 5888 5890 5890 5889 5888 5888 5889 5891 5892 5891 5892 5893 5895 5897 5897 5896 5893 5891 5891 5890 5889 5887 5884 5881 5880 5877 5874 5871 5868 5864 5861 5857 5854 5850 5846 5843
5871 5872 5873 5875 5878 5878 5884 5883 5883 5884 5886 5887 5885 5885 5884 5884 5885 5884 5884 5888 5891 5894 5893 5894 5892 5890 5889 5887 5885 5883 5880 5878 5874 5870 5867 5864 5861 5858 5854 5850 5846 5843 5840 5836
5865 5867 5871 5873 5874 5875 5877 5878 5878 5878 5880 5881 5883 5882 5884 5883 5881 5880 5879 5881 5885 5889 5889 5889 5889 5885 5882 5880 5879 5877 5874 5870 5867 5863 5860 5857 5854 5851 5847 5842 5839 5836 5833 5829
5861 5864 5867 5869 5870 5871 5873 5874 5874 5874 5874 5876 5879 5876 5877 5880 5880 5879 5878 5878 5879 5880 5882 5883 5882 5877 5876 5872 5871 5868 5866 5861 5858 5855 5853 5850 5847 5843 5839 5834 5830 5828 5825 5821
5857 5861 5863 5863 5864 5865 5865 5867 5868 5867 5870 5872 5871 5869 5870 5873 5875 5876 5873 5872 5872 5872 5874 5874 5871 5870 5868 5866 5862 5860 5858 5854 5850 5847 5845 5841 5838 5834 5830 5826 5823 5820 5817 5813
5853 5857 5856 5857 5858 5860 5861 5862 5863 5862 5863 5863 5867 5867 5866 5866 5868 5868 5868 5867 5866 5866 5866 5867 5865 5862 5861 5858 5857 5855 5850 5844 5842 5839 5836 5833 5830 5826 5821 5818 5815 5812 5808 5803
5847 5850 5852 5851 5852 5855 5855 5857 5857 5857 5857 5856 5856 5857 5858 5859 5858 5858 5858 5859 5860 5860 5859 5860 5859 5856 5853 5852 5851 5849 5843 5837 5833 5830 5828 5824 5822 5817 5813 5809 5805 5801 5797 5793
5839 5841 5848 5846 5847 5848 5851 5850 5851 5852 5851 5850 5850 5851 5854 5852 5851 5851 5852 5852 5852 5853 5853 5853 5852 5850 5847 5847 5845 5841 5835 5829 5825 5822 5819 5815 5812 5808 5804 5800 5796 5792 5788 5783
5835 5835 5838 5842 5842 5841 5843 5844 5844 5844 5846 5844 5843 5844 5848 5846 5845 5844 5844 5844 5844 5845 5845 5845 5843 5842 5842 5838 5834 5831 5827 5822 5818 5815 5811 5807 5803 5799 5795 5791 5788 5785 5781 5777
5829 5829 5831 5835 5835 5835 5834 5837 5838 5838 5837 5837 5837 5840 5842 5840 5840 5839 5838 5837 5837 5836 5835 5836 5836 5835 5833 5829 5825 5821 5817 5813 5809 5807 5803 5798 5795 5791 5787 5783 5780 5777 5773 5769
5821 5822 5824 5827 5831 5831 5830 5831 5830 5829 5828 5831 5831 5832 5833 5834 5835 5834 5833 5832 5830 5828 5827 5827 5826 5824 5822 5820 5816 5811 5807 5805 5803 5799 5796 5792 5788 5784 5779 5774 5771 5767 5761 5755
5813 5815 5817 5818 5821 5823 5822 5821 5821 5822 5823 5821 5824 5824 5825 5826 5825 5824 5824 5824 5822 5821 5819 5818 5817 5816 5815 5811 5807 5804 5800 5797 5793 5790 5786 5782 5778 5774 5771 5767 5763 5757 5751 5744
5803 5804 5807 5809 5811 5813 5814 5813 5815 5817 5816 5815 5816 5814 5818 5816 5815 5815 5815 5815 5814 5812 5810 5809 5808 5806 5804 5802 5798 5795 5792 5788 5784 5781 5777 5773 5769 5765 5760 5755 5750 5745 5739 5732
5794 5795 5797 5797 5800 5800 5796 5803 5808 5807 5807 5809 5808 5809 5807 5804 5803 5804 5804 5804 5804 5804 5802 5800 5799 5797 5795 5793 5789 5785 5781 5778 5775 5771 5767 5764 5759 5754 5750 5745 5740 5734 5728 5723
5786 5787 5787 5787 5788 5785 5788 5791 5794 5796 5796 5796 5796 5796 5795 5795 5793 5791 5792 5792 5792 5792 5791 5791 5789 5787 5785 5782 5778 5774 5772 5769 5766 5762 5758 5754 5749 5745 5741 5735 5729 5723 5718 5711
5776 5776 5776 5774 5774 5775 5774 5778 5780 5780 5782 5783 5784 5787 5785 5780 5778 5778 5779 5779 5779 5778 5778 5779 5776 5777 5774 5770 5768 5765 5762 5758 5755 5752 5747 5743 5738 5734 5729 5724 5719 5713 5707 5702
5763 5763 5765 5762 5760 5757 5763 5770 5770 5766 5760 5773 5774 5772 5771 5769 5768 5768 5767 5767 5767 5767 5767 5767 5765 5763 5761 5759 5755 5753 5750 5747 5744 5740 5737 5733 5730 5726 5722 5716 5710 5704 5697 5691
5748 5749 5750 5751 5747 5746 5749 5751 5755 5753 5759 5756 5757 5758 5758 5759 5758 5757 5755 5755 5753 5754 5753 5753 5751 5749 5748 5747 5745 5742 5740 5737 5734 5731 5728 5724 5720 5716 5711 5706 5701 5695 5688 5683
5732 5735 5736 5737 5735 5734 5739 5739 5738 5738 5738 5738 5739 5742 5746 5747 5746 5745 5745 5743 5742 5741 5740 5739 5738 5738 5737 5736 5733 5730 5729 5728 5726 5723 5720 5716 5712 5706 5701 5696 5690 5685 5680 5675
5715 5721 5723 5723 5723 5723 5722 5724 5726 5726 5726 5726 5726 5727 5728 5730 5732 5733 5732 5733 5731 5730 5730 5728 5726 5726 5725 5723 5722 5721 5720 5718 5715 5714 5711 5707 5701 5697 5691 5686 5681 5676 5672 5667
5701 5704 5706 5708 5710 5710 5712 5712 5713 5713 5714 5715 5716 5717 5717 5717 5717 5717 5719 5720 5719 5719 5719 5718 5715 5711 5709 5710 5710 5711 5710 5707 5705 5703 5699 5695 5690 5685 5681 5677 5672 5668 5664 5659
5686 5689 5692 5692 5693 5694 5696 5697 5698 5700 5701 5701 5702 5703 5703 5703 5704 5705 5706 5706 5708 5708 5707 5706 5703 5700 5697 5698 5699 5699 5699 5697 5695 5692 5688 5684 5680 5677 5672 5668 5664 5661 5657 5652
5673 5675 5674 5676 5674 5673 5678 5678 5679 5683 5686 5687 5689 5690 5691 5690 5691 5693 5694 5695 5696 5697 5696 5695 5689 5684 5687 5688 5689 5689 5688 5687 5684 5682 5678 5675 5670 5666 5663 5660 5657 5654 5649 5644